OBJECT YJ

基本信息
目录编号:
69794
目录名称:
OBJECT YJ
国际标识:
1998-067YJ
轨道中心:
EARTH
物体状态:
在轨
发射日期:
1998-11-20 UTC
国别:
(TBD)
轨道信息
数据来源: 国际轨道数据
星历时间: 2026-07-13T18:31:16+0800
半长轴: 6794.989km
偏心率: 0.0007812
轨道倾角: 51.630°
近地点辐角: 305.512°
升交点赤经: 170.113°
平近点角: 54.514°
近地点: 411.543km
远地点: 422.161km
周期: 92.906分钟
每日圈数: 15.499572
详细信息
发射场:
TTMTR
轨道高度:
LEO
数据来源:
AOE Integration Group
参考系:
TEME
时间系统:
UTC
历元类型:
SGP4
2D轨道图
3D轨道图
轨道高度分析图
轨道倾角分析图
轨道综合分析图
查看轨道综合分析图